User: anonymous   Login
Location: Freistadt
(48.5112°N, 14.5013°E)
Time: 10:39:59
(UTC+02:00)
Language:

CUBESAT XI-V - Orbit

View from above orbital plane
View from above orbital plane
View from above satellite
View from above satellite

Ground track
Ground track

The orbit data is extracted from the following two-line orbital elements,

1 28895U 05043F   23089.89521688  .00003700  00000-0  69329-3 0  9995
2 28895  98.1393 222.6286 0015412 321.8594  38.1517 14.65318869929578
Epoch (UTC): 30 March 2023 21:29:06
Eccentricity: 0.0015412
inclination: 98.1393°
perigee height: 665 km
apogee height: 687 km
right ascension of ascending node: 222.6286°
argument of perigee: 321.8594°
revolutions per day: 14.65318869
mean anomaly at epoch: 38.1517°
orbit number at epoch: 92957

The dashed part of the orbit path shows where the satellite is in the earth's shadow,  

DLR